Tracking 18851 objects as of 25-Nov-2017
HD Live streaming from Space Station
objects crossing your sky now

FENGYUN 1C DEB

Track FENGYUN 1C DEB now!
10-day predictions


NORAD ID: 31445
Int'l Code: 1999-025BUH
Perigee: 674.5 km
Apogee: 763.3 km
Inclination: 98.9 °
Period: 99.0 minutes
Semi major axis: 7089 km
RCS: 0.0042 m2 (small)
Launch date: May 10, 1999
Source: People's Republic of China (PRC)
Launch site: Taiyaun Space Center, China (TSC)

Note: This is SATELLITE DEBRIS
aabbcc
Your satellite tracking list
Your tracking list is empty




NASA's NSSDC Master Catalog

Two Line Element Set (TLE):
1 31445U 99025BUH 17328.48948535 +.00002412 +00000-0 +56672-3 0  9997
2 31445 098.9179 153.3770 0062675 205.4116 185.7480 14.54265612557054
Source of the keplerian elements: AFSPC